Home > Weather > Wailuku > Past weeks

Flag for U.S.A. Weather for the Past 2 Weeks in Wailuku, Hawaii, U.S.A.

Now
61 °F

Passing clouds.


Feels Like: 61 °F
Forecast: 59 / 80 °F
Wind: No wind

Location: Kahului Airport

Current Time: Feb 10, 2016 at 8:28:28 AM

Latest Report: Feb 10, 2016 at 7:54 AM


Visibility: 10 mi

Pressure: 30.14 "Hg

Humidity: 81%

Dew point: 55 °F

Location of WailukuLocation

Historic Weather in Wailuku — Graph

°F

Wailuku Temperature Yesterday

Maximum temperature yesterday: 80 °F (at 12:54 PM)
Minimum temperature yesterday: 55 °F (at 2:54 AM)
Average temperature yesterday: 67 °F

High & Low Weather Summary for the Past Weeks

 TemperatureHumidityPressure
High85 °F (Jan 29, 12:54 PM)94% (Jan 26, 7:54 AM)30.15 "Hg (Jan 26, 7:54 AM)
Low55 °F (Feb 9, 2:54 AM)41% (Feb 8, 8:54 AM)29.90 "Hg (Feb 6, 3:54 PM)
Average71 °F72%30.05 "Hg
* Reported Jan 26 6:54 AM — Feb 10 6:54 AM, Wailuku, Weather by CustomWeather, © 2016

Note: Actual official high and low records may vary slightly from our data, if they occured in-between our weather recording intervals... More about our weather records

Advertising

Wailuku Weather History for the Previous 24 Hours

 ConditionsComfort  
Time TempWeatherWind HumidityBarometerVisibility
6:54 AM
Wed, Feb 10
57 °FClear.8 mph90%30.11 "Hg10 mi
5:54 AM57 °FClear.7 mph90%30.10 "Hg10 mi
4:54 AM57 °FClear.7 mph93%30.09 "Hg10 mi
3:54 AM58 °FClear.7 mph93%30.08 "Hg10 mi
2:54 AM59 °FClear.7 mph90%30.08 "Hg10 mi
1:54 AM61 °FClear.7 mph87%30.09 "Hg10 mi
12:54 AM62 °FClear.6 mph86%30.10 "Hg10 mi
11:54 PM
Tue, Feb 9
63 °FPassing clouds.6 mph87%30.10 "Hg10 mi
10:54 PM63 °FPassing clouds.6 mph90%30.11 "Hg10 mi
9:54 PM63 °FPassing clouds.5 mph90%30.10 "Hg9 mi
8:54 PM63 °FClear.5 mph90%30.09 "Hg10 mi
7:54 PM66 °FClear.3 mph81%30.08 "Hg10 mi
6:54 PM71 °FPassing clouds.5 mph71%30.06 "Hg10 mi
5:54 PM74 °FPassing clouds.6 mph62%30.03 "Hg10 mi
4:54 PM77 °FPassing clouds.9 mph56%30.02 "Hg10 mi
3:54 PM78 °FPassing clouds.12 mph52%30.01 "Hg10 mi
2:54 PM79 °FPassing clouds.12 mph50%30.01 "Hg10 mi
1:54 PM79 °FPassing clouds.8 mph48%30.01 "Hg10 mi
12:54 PM80 °FPassing clouds.8 mph45%30.04 "Hg10 mi
11:54 AM78 °FPassing clouds.8 mph50%30.07 "Hg10 mi
10:54 AM78 °FSunny.N/A45%30.09 "Hg10 mi
9:54 AM74 °FSunny.6 mph52%30.10 "Hg10 mi
8:54 AM69 °FSunny.6 mph57%30.10 "Hg10 mi
Weather by CustomWeather, © 2016

See weather overviewHow to use our weather pages